Вернуться в каталог

STARLINK-4201

АктивенСвязьVLEO
NORAD 52856·PAYLOAD·🇺🇸 United States

Запущен Jun 17, 2022 с Cape Canaveral Space Force Station

Loading…

Ближайшие Пролёты (ближайшие 24 часа)

TLE

СвежийSource: CelesTrak SupGP

Эпоха: Sep 14, 2026, 20:38 UTC

1 52856C 22062AC  26257.86020833  .00031023  00000+0  94132-3 0  2577
2 52856  53.1569 244.2760 0001233  97.8675 282.1183 15.33534968    16

Отслеживайте STARLINK-4201 в реальном времени с AllMySat

Download on the App Store